COSMOS 2492 (754) (39620 NORAD) Tracking and Keplerian Element Data

This shows tracking and keplerian element data for the satellite.

Feedback or suggestion? Click here.




ElementValue
Catalog39620
NameCOSMOS 2492 (754)
Epoch Orbit3681
Epoch Day348.81790442
Epoch Year2018
RAAN46.1482
Inclination65.5522
Eccentricity0.0013886
Argument of Perigee321.2559
Mean Anonmoly320.153
Mean Motion2.13103381
Decay Rate-5.5E-07
L11 39620U 14012A 18348.81790442 -.00000055 00000-0 10000-3 0 9992
L22 39620 65.5522 46.1482 0013886 321.2559 320.1530 2.13103381 36819

Live tracking and technical data element details for COSMOS 2492 (754) (NORAD 39620). COSMOS 2492 (754) can be tracked NOW for your location showing map with azimuth and elevation plus other details from your city location.

Track the satellite on the map from your city or location and see movement details for azimuth, elevation, latitude, longitude, range, height, and movement on the map or in text.







IsCatalogInMostPopularTable: catalog: 39620, numindb: 91
Update: records affected: 1



GetName: 39620 COSMOS 2492 (754)

Hit Count: updated at: Sat, 15 Dec 2018 14:40:56 GMT